Weather History for Centerville, IA

Change the Weather History Date:

Sunday, October 27, 2013

  Actual Average Record
Temperature  
Mean Temperature 42 °F -  
Max Temperature 59 °F 61 °F 83 °F (1950)
Min Temperature 24 °F 41 °F 22 °F (1957)
Degree Days  
Heating Degree Days 24    
Moisture  
Dew Point 27 °F    
Average Humidity 65    
Maximum Humidity 100    
Minimum Humidity 31    
Precipitation  
Precipitation 0.00 in - - ()
Sea Level Pressure  
Sea Level Pressure 30.04 in    
Wind  
Wind Speed 3 mph (South)    
Max Wind Speed 14 mph    
Max Gust Speed 17 mph    
Visibility 10 miles    
Events      
Averages and records for this station are not official NWS values.
T = Trace of Precipitation, MM = Missing Value Source: NWS Daily Summary

Daily Weather History Graph

Daily Weather History Graph

Search for Another Location

Airport:

Trip Planner

Search our weather history database for the weather conditions in past years. The results will help you decide how hot, cold, wet, or windy it might be!

Date:

Astronomy

Oct. 27, 2013 Rise Set
Actual Time 7:36 AM CDT 6:13 PM CDT
Civil Twilight 7:08 AM CDT 6:41 PM CDT
Nautical Twilight 6:36 AM CDT 7:14 PM CDT
Astronomical Twilight 6:04 AM CDT 7:45 PM CDT
Moon 12:32 AM CDT (10/27) 2:25 PM CDT (10/27)
Length of Visible Light 11h 33m
Length of Day
10h 37m
Last Quarter, 43% of the Moon is Illuminated
Oct 27
Last Quarter
Nov 3
New
Nov 9
First Quarter
Nov 17
Full
Nov 25
Last Quarter

Hourly Weather History & Observations

Time (CDT) Temp. Windchill Dew Point Humidity Pressure Visibility Wind Dir Wind Speed Gust Speed Precip Events Conditions
12:15 AM 32.0 °F - 26.6 °F 80% 30.15 in 10.0 mi Calm Calm - N/A   Clear
12:35 AM 32.0 °F - 26.6 °F 80% 30.14 in 10.0 mi Calm Calm - N/A   Clear
12:55 AM 32.0 °F - 26.6 °F 80% 30.13 in 10.0 mi Calm Calm - N/A   Clear
1:15 AM 28.4 °F - 24.8 °F 86% 30.13 in 10.0 mi Calm Calm - N/A   Clear
1:35 AM 30.2 °F - 26.6 °F 86% 30.11 in 10.0 mi Calm Calm - N/A   Clear
1:55 AM 30.2 °F - 26.6 °F 86% 30.11 in 10.0 mi Calm Calm - N/A   Clear
2:15 AM 28.4 °F - 24.8 °F 86% 30.12 in 10.0 mi Calm Calm - N/A   Clear
2:35 AM 28.4 °F - 26.6 °F 93% 30.10 in 10.0 mi Calm Calm - N/A   Clear
2:55 AM 26.6 °F - 24.8 °F 93% 30.10 in 10.0 mi Calm Calm - N/A   Clear
3:15 AM 26.6 °F - 24.8 °F 93% 30.11 in 10.0 mi Calm Calm - N/A   Clear
3:35 AM 28.4 °F - 24.8 °F 86% 30.10 in 10.0 mi Calm Calm - N/A   Clear
3:55 AM 26.6 °F - 24.8 °F 93% 30.09 in 10.0 mi Calm Calm - N/A   Clear
4:15 AM 26.6 °F - 24.8 °F 93% 30.09 in 10.0 mi Calm Calm - N/A   Clear
4:35 AM 26.6 °F - 24.8 °F 93% 30.09 in 10.0 mi Calm Calm - N/A   Clear
4:55 AM 24.8 °F - 23.0 °F 93% 30.09 in 10.0 mi Calm Calm - N/A   Clear
5:15 AM 24.8 °F - 23.0 °F 93% 30.09 in 10.0 mi Calm Calm - N/A   Clear
5:35 AM 26.6 °F - 24.8 °F 93% 30.09 in 10.0 mi Calm Calm - N/A   Clear
5:55 AM 24.8 °F - 23.0 °F 93% 30.09 in 10.0 mi Calm Calm - N/A   Clear
6:15 AM 24.8 °F - 23.0 °F 93% 30.09 in 10.0 mi Calm Calm - N/A   Clear
6:35 AM 24.8 °F - 24.8 °F 100% 30.08 in 10.0 mi Calm Calm - N/A   Clear
6:55 AM 24.8 °F - 23.0 °F 93% 30.08 in 10.0 mi Calm Calm - N/A   Clear
7:15 AM 24.8 °F - 23.0 °F 93% 30.08 in 10.0 mi Calm Calm - N/A   Clear
7:35 AM 24.8 °F - 23.0 °F 93% 30.08 in 10.0 mi Calm Calm - N/A   Clear
7:55 AM 26.6 °F - 24.8 °F 93% 30.08 in 10.0 mi Calm Calm - N/A   Clear
8:15 AM 28.4 °F - 26.6 °F 93% 30.09 in 10.0 mi Calm Calm - N/A   Clear
8:35 AM 30.2 °F - 28.4 °F 93% 30.09 in 10.0 mi Calm Calm - N/A   Clear
8:55 AM 32.0 °F - 28.4 °F 87% 30.09 in 10.0 mi Calm Calm - N/A   Clear
9:15 AM 35.6 °F - 32.0 °F 87% 30.09 in 10.0 mi Calm Calm - N/A   Clear
9:35 AM 39.2 °F - 32.0 °F 75% 30.09 in 10.0 mi Calm Calm - N/A   Clear
9:55 AM 42.8 °F 38.6 °F 32.0 °F 66% 30.08 in 10.0 mi SSW 6.9 mph - N/A   Clear
10:15 AM 46.4 °F 41.5 °F 32.0 °F 57% 30.08 in 10.0 mi SSW 10.4 mph - N/A   Clear
10:35 AM 48.2 °F - 32.0 °F 54% 30.07 in 10.0 mi SW 11.5 mph - N/A   Clear
10:55 AM 48.2 °F - 32.0 °F 54% 30.07 in 10.0 mi SSW 11.5 mph - N/A   Clear
11:15 AM 50.0 °F - 32.0 °F 50% 30.07 in 10.0 mi SSW 13.8 mph - N/A   Clear
11:35 AM 50.0 °F - 30.2 °F 47% 30.06 in 10.0 mi South 11.5 mph - N/A   Clear
11:55 AM 51.8 °F - 30.2 °F 44% 30.05 in 10.0 mi SSW 10.4 mph - N/A   Clear
12:15 PM 53.6 °F - 30.2 °F 41% 30.04 in 10.0 mi South 12.7 mph 17.3 mph N/A   Clear
12:35 PM 53.6 °F - 30.2 °F 41% 30.03 in 10.0 mi SW 11.5 mph - N/A   Clear
12:55 PM 55.4 °F - 32.0 °F 41% 30.02 in 10.0 mi SSW 9.2 mph - N/A   Clear
1:15 PM 55.4 °F - 30.2 °F 38% 30.02 in 10.0 mi SSW 11.5 mph - N/A   Clear
1:35 PM 57.2 °F - 30.2 °F 36% 30.01 in 10.0 mi South 11.5 mph 17.3 mph N/A   Clear
1:55 PM 57.2 °F - 30.2 °F 36% 30.00 in 10.0 mi SSW 11.5 mph - N/A   Clear
2:15 PM 57.2 °F - 28.4 °F 33% 29.99 in 10.0 mi South 13.8 mph - N/A   Clear
2:35 PM 59.0 °F - 28.4 °F 31% 29.98 in 10.0 mi South 10.4 mph - N/A   Clear
2:55 PM 59.0 °F - 28.4 °F 31% 29.97 in 10.0 mi SSW 11.5 mph - N/A   Clear
3:15 PM 59.0 °F - 28.4 °F 31% 29.95 in 10.0 mi South 10.4 mph - N/A   Clear
3:35 PM 59.0 °F - 28.4 °F 31% 29.95 in 10.0 mi SSW 13.8 mph - N/A   Clear
5:35 PM 57.2 °F - 26.6 °F 31% 29.94 in 10.0 mi South 10.4 mph - N/A   Clear
5:55 PM 53.6 °F - 28.4 °F 38% 29.94 in 10.0 mi South 6.9 mph - N/A   Clear
6:15 PM 53.6 °F - 28.4 °F 38% 29.94 in 10.0 mi South 8.1 mph - N/A   Clear
6:35 PM 50.0 °F - 28.4 °F 43% 29.94 in 10.0 mi South 4.6 mph - N/A   Clear
6:55 PM 48.2 °F - 28.4 °F 46% 29.95 in 10.0 mi South 6.9 mph - N/A   Clear
7:15 PM 48.2 °F - 28.4 °F 46% 29.95 in 10.0 mi SSE 6.9 mph - N/A   Clear
7:35 PM 46.4 °F 42.4 °F 28.4 °F 50% 29.95 in 10.0 mi SSE 8.1 mph - N/A   Clear
7:55 PM 46.4 °F 42.4 °F 28.4 °F 50% 29.96 in 10.0 mi South 8.1 mph - N/A   Clear
8:15 PM 46.4 °F 41.9 °F 28.4 °F 50% 29.96 in 10.0 mi South 9.2 mph - N/A   Clear
8:35 PM 46.4 °F 41.9 °F 28.4 °F 50% 29.97 in 10.0 mi South 9.2 mph - N/A   Clear
8:55 PM 46.4 °F 42.4 °F 28.4 °F 50% 29.97 in 10.0 mi South 8.1 mph - N/A   Clear
9:15 PM 46.4 °F 45.2 °F 28.4 °F 50% 29.98 in 10.0 mi South 3.5 mph - N/A   Clear
9:35 PM 44.6 °F - 26.6 °F 49% 29.99 in 10.0 mi Calm Calm - N/A   Clear
9:55 PM 42.8 °F - 26.6 °F 53% 30.00 in 10.0 mi Calm Calm - N/A   Clear
10:15 PM 42.8 °F 39.3 °F 26.6 °F 53% 30.00 in 10.0 mi South 5.8 mph - N/A   Clear
10:35 PM 42.8 °F - 26.6 °F 53% 30.01 in 10.0 mi Calm Calm - N/A   Clear
10:55 PM 42.8 °F - 26.6 °F 53% 30.01 in 10.0 mi Calm Calm - N/A   Clear
11:15 PM 41.0 °F - 28.4 °F 61% 30.02 in 10.0 mi Calm Calm - N/A   Clear
11:35 PM 41.0 °F - 26.6 °F 57% 30.01 in 10.0 mi Calm Calm - N/A   Clear
11:55 PM 41.0 °F - 28.4 °F 61% 30.01 in 10.0 mi Calm Calm - N/A   Clear